カタログに戻る

FENGYUN 1C DEB

運用中SSO
NORAD 30066·DEBRIS·🇨🇳 China

打ち上げ May 10, 1999 から Taiyuan Satellite Launch Center

Loading…

次のパス (今後24時間)

TLE

最新Source: Space-Track

元期: Sep 14, 2026, 17:23 UTC

1 30066U 99025PT  26257.72455500  .00000105  00000-0  65712-4 0  9991
2 30066  98.6561 246.5469 0117305 185.5869 349.9714 14.19277045 17507

AllMySatでFENGYUN 1C DEBをリアルタイム追跡

Download on the App Store